Wind_Speed
3 3 3 6 9 9 9 11 11 5 2 2 3 5 6 7 8 8 10 10 4 5 9 11 16 14 13 15 14 15 15 15 16 11 12 15 15 14 14 15 14 15 16 14 14 15 17 19 19 20 20 21 23 24 27 29 32 34 35 36 38 38 39 39 39 40 41 42 41 40 43 48 49 48 48 49 51 51 52 51 50 49 48 47 47 46
3 4 8 13 11 6 4 5 5 4 5 6 5 7 5 5 11 10 10 12 3 1 5 8 13 14 14 16 16 16 15 16 17 11 12 16 17 16 13 12 11 11 13 12 12 14 15 16 16 16 16 18 20 23 26 29 32 33 35 37 37 36 38 41 42 42 44 46 45 44 46 48 46 46 48 50 51 51 50 50 50 49 49 48 48 47
2 5 12 13 4 2 2 2 1 5 6 6 3 4 5 5 8 7 7 8 3 1 6 9 12 11 15 21 19 16 13 14 15 12 15 17 17 15 9 8 10 11 13 14 14 14 12 12 13 13 14 16 20 24 26 28 30 30 33 35 35 36 39 41 43 43 44 44 43 41 39 38 37 39 44 45 45 46 47 47 48 48 49 49 48 48
3 7 12 8 4 3 3 1 1 4 4 5 3 4 7 7 5 5 5 6 4 3 5 10 12 10 13 15 12 12 10 10 13 16 17 12 10 13 11 9 11 12 14 16 16 14 11 9 10 11 13 16 19 23 24 26 27 28 31 34 35 36 38 40 42 42 41 38 37 35 32 31 31 32 35 36 36 40 43 44 46 48 49 49 48 48
6 7 4 2 5 7 6 4 5 6 4 4 5 6 10 9 7 8 5 6 6 5 3 7 10 6 4 4 3 5 4 5 11 15 12 4 3 8 10 11 10 9 9 12 15 15 12 10 12 15 16 17 19 22 24 24 25 28 30 32 35 36 37 39 40 40 38 35 33 32 26 25 27 26 28 34 36 38 41 43 46 47 48 48 48 48
8 6 4 5 3 5 5 6 7 6 3 4 6 12 14 12 10 10 6 6 5 4 3 7 7 4 1 1 4 4 5 9 11 7 6 5 3 5 7 9 8 7 6 8 11 12 11 11 14 17 17 17 18 20 21 22 23 25 27 29 31 33 35 36 37 38 38 37 36 35 31 28 28 27 31 39 40 39 42 44 45 46 47 48 48 48
5 2 4 6 4 6 5 6 5 7 3 3 5 8 11 9 8 8 6 3 1 3 3 4 1 7 3 3 7 6 7 14 11 6 7 7 6 5 6 6 7 8 7 7 9 9 10 11 12 15 17 17 18 19 19 20 20 21 23 25 28 31 33 34 35 37 38 38 38 39 38 35 33 32 34 36 33 34 39 40 41 44 46 47 48 47
3 3 6 5 5 6 5 6 5 9 6 4 4 2 3 4 5 5 1 1 3 3 5 1 3 6 7 4 6 7 8 11 11 8 9 7 6 6 6 5 6 7 8 9 10 10 10 11 13 16 18 19 20 20 19 18 17 17 19 21 24 28 30 32 33 36 38 38 38 38 37 34 35 34 31 30 29 31 35 36 37 41 43 45 46 46
3 4 4 6 5 4 6 5 7 11 6 5 4 4 4 3 4 4 4 2 1 3 5 3 3 3 8 5 2 4 5 7 9 9 9 7 7 7 7 7 7 6 7 8 9 10 11 12 16 18 20 26 27 24 23 20 15 13 14 17 20 24 28 30 31 34 36 37 36 36 35 33 33 31 28 26 27 29 31 34 35 37 40 42 44 45
1 4 7 8 5 6 7 4 8 11 5 4 5 5 4 4 3 3 3 2 2 3 5 5 5 4 8 4 2 1 2 5 6 6 6 7 8 8 7 8 8 7 8 8 8 8 10 14 17 19 27 34 32 27 25 23 18 14 11 12 15 19 23 26 28 31 34 35 34 34 34 32 29 28 26 23 25 28 30 32 33 35 38 40 42 44
1 1 3 5 5 5 4 2 4 7 4 4 6 5 6 5 4 3 1 2 2 5 7 8 10 5 6 4 3 3 3 5 3 6 8 9 10 8 6 7 8 8 8 8 8 10 15 20 26 31 34 36 35 31 27 23 20 16 12 10 11 14 17 20 24 27 30 32 33 33 33 33 30 28 28 26 27 29 31 33 34 35 36 38 41 42
1 1 2 3 3 4 5 3 1 1 4 4 4 4 3 4 4 4 4 3 1 6 6 6 9 7 7 6 2 4 5 4 4 5 8 9 10 8 6 6 8 9 9 11 13 15 18 22 28 32 33 34 35 34 29 25 20 16 12 8 8 9 12 16 20 24 27 30 32 32 32 33 32 30 31 32 31 33 34 36 36 36 36 37 38 40
2 4 3 3 1 5 5 2 2 3 4 4 3 4 2 3 3 3 3 1 3 7 5 1 4 4 9 8 4 8 13 10 5 3 5 7 6 6 7 8 9 10 12 14 14 14 15 16 19 24 28 31 32 31 30 27 22 18 14 9 7 7 9 12 16 20 24 28 30 31 30 31 31 31 32 33 32 32 35 35 36 37 38 39 39 41
3 4 1 0 3 4 8 5 3 1 4 5 5 5 3 2 1 3 3 2 4 6 3 0 1 2 8 7 6 11 13 10 4 3 7 5 3 4 6 8 10 12 14 13 12 14 14 14 16 20 25 27 28 30 31 30 27 23 19 15 11 9 8 10 14 17 21 25 27 28 29 29 29 30 31 32 31 31 32 33 34 37 39 41 43 45
3 6 3 6 3 5 10 8 5 4 5 5 4 5 4 4 4 4 4 5 7 5 2 0 1 3 5 4 4 9 9 4 3 5 3 3 4 5 8 11 13 14 13 12 12 14 14 15 19 22 24 26 28 30 32 33 32 29 26 24 19 15 12 10 12 15 19 22 24 26 27 27 27 28 29 29 29 29 30 31 32 35 38 41 43 45
4 7 7 3 1 8 9 5 4 7 2 2 3 3 2 4 5 4 4 6 5 3 2 2 3 5 5 8 11 11 9 4 3 5 9 10 9 10 13 14 14 13 13 13 13 14 15 19 23 24 25 27 29 32 35 37 37 35 33 32 28 23 19 14 12 13 16 19 22 24 26 27 27 27 27 28 28 28 29 31 32 35 37 39 40 41
3 6 4 2 1 6 8 3 2 3 2 1 3 3 3 3 5 3 5 2 1 4 5 4 6 6 4 10 13 11 9 7 8 10 13 13 14 16 15 13 13 13 13 13 12 12 14 18 23 26 27 29 31 34 36 37 38 37 37 36 33 30 26 21 17 15 16 17 19 22 24 27 28 29 29 29 28 28 29 30 32 34 35 37 38 38
3 5 4 4 4 6 4 3 1 1 4 5 3 5 2 2 2 1 2 1 2 7 5 6 11 10 6 7 9 10 11 9 11 13 15 15 16 15 12 12 12 12 11 12 12 13 13 17 22 25 27 29 31 33 35 36 36 36 37 37 35 34 32 29 24 20 18 18 19 21 23 25 28 29 30 30 29 28 28 30 31 33 34 36 37 37
1 4 5 3 5 2 3 1 2 2 2 4 3 3 2 2 2 1 2 1 5 9 5 5 11 9 5 7 9 10 8 9 10 12 15 15 14 11 10 10 10 10 10 10 11 11 11 14 19 23 26 30 32 34 35 36 37 38 38 37 36 35 34 34 31 26 23 20 20 21 23 25 27 28 30 30 30 29 30 31 32 34 35 35 36 37
2 2 4 1 1 0 3 0 4 2 2 2 1 3 1 3 3 2 3 2 4 8 6 5 6 4 5 7 5 2 5 7 8 10 11 10 9 7 6 6 7 8 8 8 9 10 11 15 21 25 26 28 29 31 33 35 37 38 39 39 39 37 37 37 36 34 30 26 21 21 23 25 27 28 30 30 30 31 32 33 33 35 36 36 37 37
2 3 4 1 2 1 1 3 6 7 3 1 1 3 2 2 1 2 2 2 3 6 6 6 6 5 5 2 4 6 6 6 8 9 8 7 8 7 7 7 8 9 10 10 10 11 11 16 22 25 26 26 27 29 31 32 33 35 36 37 38 39 40 40 38 37 36 32 27 24 23 24 26 28 30 31 31 32 33 33 33 35 36 37 38 38
1 3 4 3 2 5 7 7 6 7 6 5 5 5 6 5 2 4 6 5 5 5 5 7 9 6 1 3 7 8 6 7 8 8 8 7 7 7 7 8 8 8 9 9 9 9 9 13 17 20 23 26 28 30 32 32 32 34 35 35 35 37 38 39 39 38 37 35 32 30 27 25 25 26 28 30 31 32 33 33 34 34 35 37 38 38
2 2 4 7 6 8 10 8 5 6 4 3 3 4 4 4 4 6 8 6 5 6 6 8 10 5 4 7 7 7 8 9 8 8 8 6 5 6 7 8 8 8 8 9 8 8 9 13 16 18 20 22 23 25 27 29 30 32 33 35 36 37 39 39 39 39 38 37 35 34 31 29 27 25 26 28 30 32 33 34 35 35 35 36 37 38
1 2 3 7 5 5 7 7 4 2 3 1 3 3 4 4 5 7 7 4 4 6 7 8 9 4 3 6 7 8 8 8 8 7 7 6 5 6 7 7 8 8 9 10 9 9 12 16 18 19 21 22 22 23 24 25 27 29 31 34 35 36 39 40 41 42 41 40 39 38 36 34 32 29 27 27 28 30 31 33 34 35 36 36 36 37
2 2 3 5 4 4 4 6 5 2 1 2 2 2 3 4 6 6 4 1 1 5 9 8 6 3 3 5 7 8 7 8 8 7 6 6 4 3 4 4 5 6 7 9 10 11 12 15 16 18 21 23 24 26 27 27 27 28 30 32 33 35 37 39 40 41 41 40 40 40 39 39 37 34 31 29 29 28 29 30 32 33 35 36 36 37
1 2 3 5 6 6 6 6 3 2 1 1 2 4 4 3 5 5 3 3 4 6 8 6 4 4 5 2 4 7 6 6 7 6 5 4 3 2 2 2 3 4 5 7 8 9 10 11 12 16 19 21 22 25 26 27 28 29 30 31 31 33 35 37 38 38 38 38 38 38 39 40 40 38 36 33 31 29 28 28 28 30 32 34 35 37
0 2 4 7 9 9 9 8 4 3 4 5 6 7 7 6 6 5 4 5 8 8 7 8 9 11 10 6 4 7 7 6 5 4 3 2 2 2 2 2 3 3 4 5 7 7 8 10 11 15 19 21 22 24 24 25 26 27 30 30 31 33 34 35 36 36 36 35 35 34 36 38 39 39 38 36 34 31 29 28 27 27 29 31 33 36
1 3 6 10 13 11 11 12 9 8 9 10 11 12 12 10 8 8 10 10 9 8 8 9 11 12 9 4 1 3 4 4 4 4 3 2 2 2 3 4 5 6 6 6 7 8 8 9 9 12 17 21 23 25 26 26 26 26 27 28 29 31 33 34 34 34 34 34 33 33 34 36 37 38 39 39 36 33 30 29 28 28 28 29 31 34
2 4 6 11 14 12 13 14 11 9 10 10 11 13 13 11 11 12 14 12 9 8 9 9 12 14 9 2 2 2 2 2 2 2 3 2 2 3 4 5 6 7 7 7 7 7 8 8 8 10 14 18 20 23 25 27 28 29 29 28 28 29 30 31 31 31 32 32 31 31 33 35 35 37 39 39 38 36 33 30 29 28 28 28 30 32
3 3 4 7 10 9 10 11 8 8 9 9 10 10 10 12 14 14 13 12 11 12 12 13 17 16 6 2 4 3 3 1 2 3 3 3 3 3 3 5 5 6 6 6 6 6 6 6 7 9 13 15 17 20 22 23 26 28 29 30 30 31 31 31 30 30 30 31 30 30 31 33 35 37 38 38 37 37 35 33 30 28 27 28 29 31
2 3 1 1 5 7 8 9 8 6 7 9 9 9 11 13 14 13 13 12 13 14 14 15 16 11 1 4 2 3 3 2 2 3 4 4 3 2 3 4 5 6 6 6 6 6 6 6 7 9 12 14 16 18 19 21 23 24 26 28 30 32 33 31 29 29 30 31 31 31 31 32 34 36 38 38 37 37 37 35 32 28 27 26 27 30
2 3 3 2 5 9 10 11 9 5 6 10 11 13 16 16 14 14 13 12 13 15 15 13 10 5 4 3 1 3 4 3 3 4 4 3 2 2 3 5 6 6 7 7 7 7 7 7 7 8 11 15 17 18 19 21 22 22 23 26 29 32 32 30 29 29 29 30 31 31 31 32 33 35 36 38 38 38 38 36 34 31 29 27 26 28
2 2 2 2 5 6 7 7 3 2 6 10 11 13 16 16 15 14 14 14 11 8 9 10 5 2 4 3 1 2 4 3 3 4 4 4 3 3 5 6 6 6 7 6 7 7 7 7 8 11 14 17 18 20 22 23 22 20 21 24 28 31 31 30 29 29 30 30 30 30 31 32 33 34 35 36 37 38 38 38 37 35 32 30 28 27
3 4 3 3 3 4 5 3 3 3 9 7 3 4 8 11 13 13 11 10 5 1 1 2 2 3 4 4 3 4 4 4 3 4 5 4 3 4 6 6 6 7 6 6 7 7 7 8 11 14 16 18 20 21 23 24 23 22 22 23 26 28 28 28 29 29 30 30 29 29 30 31 32 34 35 35 36 37 37 37 37 35 34 32 30 28
5 5 4 3 3 3 3 3 5 9 7 3 2 1 3 3 5 5 4 3 3 4 5 5 5 5 5 6 6 5 5 5 3 5 7 6 4 6 6 6 6 7 6 7 7 7 8 10 12 15 17 19 21 22 23 24 23 23 24 25 26 27 27 27 28 27 27 27 28 29 29 30 32 34 35 35 34 34 35 36 36 36 34 32 30 29
7 6 5 4 3 3 2 5 9 6 3 3 4 2 2 1 2 1 2 3 5 6 6 6 5 5 5 6 6 5 5 4 3 5 9 8 7 7 7 7 6 6 6 7 7 8 10 12 14 16 19 20 22 23 24 24 23 23 26 27 28 28 28 28 28 27 26 26 27 29 30 31 33 35 35 34 33 33 33 34 35 36 35 32 30 30
9 7 4 4 5 4 5 7 7 6 6 8 6 2 3 3 4 3 2 4 7 6 5 4 4 4 5 5 6 5 2 1 3 6 9 9 9 10 9 8 7 7 8 10 12 13 15 16 16 18 20 21 23 24 24 24 23 23 26 29 29 29 30 29 27 27 27 27 28 29 31 32 34 35 35 33 33 33 33 33 34 36 35 32 30 30
9 7 5 4 4 4 3 5 5 6 7 6 5 4 3 3 3 3 1 1 6 7 4 4 4 6 5 5 6 3 2 1 4 6 6 7 8 9 8 8 8 10 12 13 15 16 17 18 18 19 21 22 24 25 23 22 23 23 25 27 28 29 30 30 28 27 27 29 30 32 33 34 34 34 33 32 32 33 34 34 34 35 34 32 30 30
5 5 5 4 4 3 4 4 5 6 5 2 4 4 3 1 2 2 2 2 4 6 5 5 6 7 6 6 5 3 3 2 5 6 6 7 8 8 7 7 8 12 15 16 15 16 18 20 21 22 23 22 24 26 24 23 23 23 23 25 26 27 29 29 28 28 29 31 32 33 34 35 34 32 31 32 33 33 35 35 35 36 35 33 31 31
1 2 4 5 5 6 7 6 5 4 2 3 6 4 2 2 4 3 4 3 4 8 7 7 8 8 7 7 5 4 5 6 6 7 7 6 7 9 8 8 9 10 14 17 17 18 19 20 21 22 24 25 26 28 26 24 24 24 24 25 25 26 28 28 29 29 30 32 33 34 36 36 34 32 32 32 34 34 34 35 35 36 36 35 33 32
1 1 2 3 5 8 9 6 5 3 3 5 7 5 4 3 4 1 6 4 7 9 8 7 8 9 7 7 5 4 7 8 8 9 8 4 5 8 10 12 13 14 15 17 19 19 18 20 22 23 26 29 29 29 27 24 24 26 26 26 26 28 28 28 29 30 31 33 35 37 38 38 36 34 33 34 34 34 35 35 35 35 36 36 35 32
1 0 2 2 3 4 5 4 4 4 3 5 5 2 2 3 1 5 6 4 7 9 7 7 9 8 7 7 7 7 9 10 9 9 9 8 9 9 10 11 12 14 17 18 19 19 18 19 22 24 28 32 31 29 27 24 25 28 28 27 30 31 29 28 30 31 32 35 37 37 38 39 38 36 35 36 35 34 36 38 36 35 35 34 34 33
3 1 2 3 2 1 2 4 4 4 3 7 6 1 1 3 5 5 3 3 6 7 6 6 8 7 7 7 8 9 9 10 10 9 9 10 11 10 11 10 8 11 15 18 20 21 18 18 22 25 29 32 32 31 28 25 26 29 28 30 34 33 29 29 31 32 35 37 38 38 39 38 38 36 35 37 36 34 37 39 37 36 34 32 31 30
3 3 3 4 2 3 3 5 5 4 5 6 6 3 4 6 5 3 2 5 5 5 4 5 7 8 7 7 8 8 8 9 10 10 10 10 10 10 10 10 9 11 13 17 22 24 20 18 21 25 29 32 33 32 30 26 25 28 30 34 36 34 31 31 32 33 35 37 38 40 40 37 37 37 37 38 37 35 36 38 36 35 33 31 29 27
5 6 5 5 3 4 5 6 4 3 3 4 4 4 6 7 6 4 4 5 6 4 4 4 6 7 7 7 7 7 8 9 9 10 9 9 9 9 9 9 11 13 14 18 23 24 21 19 22 25 29 33 35 35 32 28 25 27 32 36 35 33 33 34 34 34 36 37 38 40 39 39 39 39 39 39 37 34 34 35 34 32 32 29 27 25
6 4 1 3 4 4 7 9 6 4 7 7 7 7 8 8 8 5 5 6 6 6 5 4 6 7 6 6 6 6 8 9 9 9 8 7 8 9 8 10 13 16 18 20 21 22 21 21 23 24 27 33 38 37 34 31 28 29 34 36 34 33 34 34 34 36 37 38 38 38 38 39 41 40 39 38 35 34 33 33 31 31 30 28 27 26
5 4 3 5 7 7 9 9 5 6 11 10 8 9 8 8 7 5 5 6 6 6 6 5 6 7 6 5 6 7 9 9 8 7 7 6 8 9 8 9 13 17 19 20 20 21 22 21 23 24 26 32 38 39 36 35 34 33 34 34 33 33 34 34 34 36 37 38 39 38 37 37 38 38 38 37 34 32 32 32 31 30 29 28 26 24
3 4 4 8 9 8 12 13 8 7 10 8 7 8 8 8 9 7 6 6 6 6 6 4 4 5 5 4 4 5 8 7 5 5 6 7 8 9 8 9 13 17 21 22 22 22 22 22 23 25 27 32 38 40 39 39 39 37 34 33 33 33 35 37 36 36 38 39 38 37 36 35 34 35 35 35 33 32 32 31 30 29 30 30 28 25
2 2 3 4 7 9 13 14 9 7 9 10 10 10 8 8 10 9 6 3 3 4 4 2 1 1 1 1 1 2 6 7 4 3 6 8 9 9 9 13 17 20 22 24 23 24 24 24 25 27 29 33 37 40 41 42 42 39 35 34 34 34 36 39 39 38 38 38 36 34 33 32 32 32 32 32 32 32 32 32 30 30 31 32 31 30
4 6 4 2 6 10 11 10 8 7 8 10 10 9 7 5 6 7 5 1 1 0 2 3 3 1 2 1 0 1 5 7 5 4 6 8 9 10 12 16 19 22 23 25 26 27 27 27 27 29 31 35 37 39 41 43 44 42 38 37 37 37 38 39 39 38 37 34 32 31 30 28 28 29 29 28 28 29 32 34 33 33 34 35 35 34
6 8 7 5 9 12 13 11 8 5 7 11 11 6 2 0 2 3 3 0 2 2 2 2 3 3 1 1 2 3 6 7 5 5 7 8 11 14 15 17 18 21 24 26 26 26 28 30 31 31 32 35 38 40 42 45 45 44 42 40 39 38 39 38 36 35 34 31 29 30 30 28 27 27 27 27 27 27 29 32 33 33 34 36 37 36
Wind_Direction
112 126 163 217 230 223 213 213 228 261 338 261 252 254 260 277 274 262 267 266 247 279 274 262 273 282 279 277 277 276 276 271 267 270 274 276 278 271 264 264 272 278 279 291 311 309 300 297 295 288 281 272 265 258 251 244 238 235 231 227 224 221 218 214 211 208 207 206 206 207 210 214 216 216 216 218 219 220 221 221 220 220 219 219 219 218
100 163 216 229 231 223 209 217 250 282 285 267 259 276 280 261 269 270 273 278 274 254 265 258 275 287 287 281 271 268 272 275 276 272 263 267 269 265 268 281 286 287 290 305 312 304 303 304 300 295 286 271 263 259 252 245 241 236 230 227 223 219 215 213 212 209 208 208 207 208 211 214 213 213 214 216 218 218 219 219 218 218 218 218 218 218
118 213 238 238 215 75 59 91 208 247 254 265 266 293 292 265 276 278 270 294 346 234 273 284 286 283 275 272 268 265 262 266 272 262 251 253 261 272 291 303 296 297 302 309 307 303 307 308 307 301 289 275 265 262 256 250 246 237 229 226 222 218 215 214 212 210 210 211 210 211 214 214 212 214 216 216 217 217 216 217 217 217 217 217 217 217
186 244 246 235 156 162 255 278 263 274 254 240 248 282 275 266 286 276 272 326 345 261 274 297 294 277 266 271 274 269 253 253 265 258 251 250 262 283 294 291 290 299 305 308 305 306 316 323 324 310 293 285 274 265 259 253 247 239 232 227 222 220 217 214 212 211 211 210 210 212 217 217 214 217 217 216 219 218 216 216 216 216 216 217 217 217
238 250 229 145 146 179 224 253 246 256 259 236 218 230 256 262 254 249 277 350 330 295 311 318 306 280 270 304 297 285 280 259 256 255 265 295 266 269 282 282 284 290 291 298 302 307 317 324 320 307 296 290 279 270 267 261 252 245 239 232 225 221 217 214 212 210 208 207 206 207 211 212 210 213 212 211 216 217 215 216 215 215 216 216 217 217
260 250 139 110 114 149 187 240 233 211 241 290 229 221 241 256 257 262 303 4 352 325 359 5 337 283 195 72 260 296 319 272 258 270 309 326 285 261 274 282 292 294 275 278 290 301 314 317 313 309 307 301 288 283 281 274 265 254 246 238 229 222 218 214 211 208 205 204 202 199 198 197 197 202 205 207 211 211 212 214 215 215 216 216 217 217
255 292 113 144 148 134 175 245 228 164 156 287 248 220 232 249 263 274 303 355 356 275 311 41 14 274 269 185 238 261 266 266 277 331 326 301 300 293 280 294 314 312 310 307 301 309 316 314 317 317 316 314 309 305 299 290 282 267 251 241 232 225 220 215 211 207 205 203 201 200 199 198 198 202 208 212 214 214 213 214 215 215 216 216 216 217
195 54 64 121 137 141 191 249 215 154 144 240 248 170 181 223 239 236 230 225 230 277 313 3 147 276 286 215 234 252 243 270 296 308 302 299 305 301 297 323 322 310 328 330 321 330 330 328 333 323 319 331 335 328 317 305 297 281 259 243 234 227 221 217 212 208 205 204 203 203 203 204 206 208 213 215 215 217 215 213 215 215 215 215 215 216
145 135 151 140 123 166 205 222 183 154 160 240 216 122 127 162 184 163 141 186 268 343 312 285 151 266 280 237 252 290 249 278 296 286 297 318 319 321 331 334 328 328 347 345 329 334 342 339 332 326 340 357 357 347 335 325 315 297 270 247 234 228 222 218 214 210 208 207 206 206 206 208 212 213 215 216 214 215 214 213 215 215 215 214 213 215
164 184 183 149 147 207 217 209 174 163 181 214 141 95 67 70 77 85 117 143 30 331 260 213 173 245 284 255 158 52 231 245 264 272 295 313 315 329 339 330 338 355 356 349 335 340 357 348 340 353 8 9 6 358 349 341 334 323 296 261 241 231 225 221 217 213 211 209 209 209 209 211 213 212 213 214 213 213 213 212 213 215 215 214 213 214
252 190 163 158 186 196 166 137 177 168 154 122 100 58 33 31 32 41 34 77 58 291 252 199 181 199 286 286 179 188 213 203 238 301 308 316 322 330 339 334 345 355 345 342 349 1 10 3 2 13 17 10 6 5 0 354 348 341 322 287 259 241 232 226 221 217 215 213 212 213 213 214 214 211 209 209 208 208 208 209 211 213 215 216 215 214
299 179 219 241 216 141 116 101 327 76 105 103 84 56 25 344 5 23 355 38 116 262 265 205 176 177 242 263 217 246 264 225 225 286 299 309 315 317 335 350 354 355 351 0 8 8 10 7 7 14 15 9 6 5 3 1 357 350 339 315 282 258 243 235 228 224 221 218 216 218 218 217 216 214 212 210 209 208 207 207 208 209 212 214 215 214
269 218 245 297 246 152 132 121 341 22 90 112 105 93 41 321 351 354 307 45 206 253 277 188 155 193 244 254 257 272 282 281 265 233 245 261 277 304 344 2 2 8 13 14 14 11 12 10 7 11 13 9 6 4 5 6 3 359 354 342 318 291 265 247 239 234 229 226 224 223 223 222 221 219 218 218 216 214 212 209 207 207 208 209 211 213
287 284 244 226 275 183 153 167 233 237 163 155 151 150 146 177 229 277 263 265 269 267 288 101 144 277 276 272 249 249 265 281 284 227 226 235 275 330 358 17 18 21 23 19 16 16 15 12 10 15 16 13 9 9 12 12 9 6 4 0 350 329 297 265 250 242 238 236 234 232 232 230 227 225 225 224 223 222 219 214 212 211 210 211 212 214
247 295 214 182 239 179 175 195 192 145 155 174 163 155 152 160 204 239 229 249 271 274 294 345 167 221 253 265 234 232 248 266 273 267 283 29 26 11 19 28 28 24 22 20 19 18 13 10 12 16 18 17 14 15 20 20 15 10 9 8 2 349 329 299 270 254 248 245 242 241 241 240 237 235 234 232 230 228 226 222 219 218 217 217 218 218
203 265 249 218 153 163 183 218 140 110 124 209 128 117 178 181 190 237 245 234 250 274 265 223 230 224 238 289 290 279 285 311 340 359 40 45 37 41 35 26 23 20 17 18 17 14 9 10 13 14 15 15 14 16 20 22 19 16 14 14 10 0 348 329 303 278 264 257 253 249 247 246 244 242 241 240 238 235 233 230 226 226 225 224 223 221
219 264 273 0 355 194 192 197 136 140 186 172 123 177 226 168 156 236 279 254 202 258 242 217 252 268 288 292 290 297 318 356 27 39 52 45 37 42 35 23 19 14 13 14 12 12 9 9 12 13 14 13 13 15 17 19 20 19 19 19 17 12 5 353 335 312 292 277 267 261 256 252 249 246 244 244 243 241 239 237 234 232 231 229 227 225
241 268 252 181 220 240 189 155 308 293 146 132 171 218 214 88 109 156 282 338 259 251 241 218 245 265 284 279 286 311 334 12 39 46 47 39 38 38 29 22 18 10 9 8 7 10 10 10 12 13 13 13 14 15 15 15 16 18 20 20 19 17 14 8 358 341 321 302 286 276 268 261 257 252 249 246 245 244 242 240 238 236 235 233 231 229
284 279 270 198 206 251 60 96 287 315 113 137 204 236 124 160 243 179 172 232 250 253 257 221 232 246 249 255 280 307 343 31 43 47 46 40 39 34 23 19 14 10 11 9 8 6 5 10 12 13 13 13 14 14 14 13 13 14 16 16 17 16 15 14 11 2 349 330 307 293 282 274 267 262 257 252 249 246 243 242 240 238 237 236 235 232
35 267 279 28 171 228 46 325 217 241 341 46 329 312 54 177 206 200 185 176 232 251 258 233 224 220 224 237 260 342 47 54 46 51 53 48 47 39 26 17 9 13 14 9 8 4 3 8 10 14 14 12 14 14 13 12 11 12 12 11 11 11 11 12 12 9 3 353 335 314 299 288 279 272 266 260 254 250 247 244 242 240 238 237 236 234
29 246 245 351 354 263 217 216 205 214 227 126 193 258 244 215 225 251 234 185 219 249 254 254 249 231 236 241 105 98 81 67 68 69 60 46 44 35 24 19 11 12 13 7 6 3 1 4 6 9 11 11 13 14 14 13 11 10 10 9 8 7 7 7 7 6 4 0 353 337 320 305 293 282 274 268 262 257 253 250 246 243 241 239 237 235
231 239 239 259 276 249 246 236 211 213 208 181 190 209 215 220 229 261 250 215 212 234 236 258 265 249 243 67 98 111 102 85 81 80 69 46 34 28 22 19 14 13 10 5 2 0 359 0 3 6 9 11 12 12 11 10 9 8 8 7 7 6 6 5 3 3 2 1 358 351 339 325 309 294 282 274 268 263 260 257 253 249 245 241 238 236
167 140 234 249 241 244 260 261 220 192 175 176 196 197 207 197 183 229 249 240 239 245 239 253 261 254 85 91 108 109 103 95 87 87 84 65 37 31 22 14 14 12 7 2 359 359 357 357 1 5 9 12 14 12 10 8 8 6 5 5 5 5 4 3 2 1 1 360 359 356 352 342 329 313 296 282 273 267 263 260 257 254 250 246 242 239
64 108 247 260 262 270 280 283 271 157 127 211 238 187 185 196 211 234 247 251 252 249 249 254 254 253 80 102 114 107 107 101 90 89 88 78 51 34 20 13 10 4 2 1 358 357 357 359 3 5 6 6 7 8 8 7 6 5 4 4 4 3 2 1 1 1 0 359 357 357 356 352 345 334 316 298 285 275 269 263 259 254 251 248 245 242
273 224 250 269 282 295 288 288 301 338 107 235 242 215 216 232 254 270 277 281 236 222 229 244 252 236 151 136 114 102 108 103 93 90 85 81 71 46 27 15 4 357 358 358 356 357 357 360 2 1 1 0 360 0 1 2 3 3 3 2 2 1 360 360 360 359 359 357 356 356 356 354 352 346 335 320 305 292 281 271 262 256 251 247 245 242
271 241 250 264 262 262 270 270 263 256 257 267 276 280 280 250 242 269 292 276 262 236 227 243 272 260 235 203 60 51 58 73 81 87 91 95 92 76 49 5 350 355 356 354 356 357 355 357 357 356 357 356 356 357 357 357 358 358 359 359 360 359 358 358 357 357 356 355 354 353 353 353 352 349 345 336 324 311 298 285 272 262 254 249 246 243
84 241 231 248 255 257 269 274 271 278 279 277 278 276 274 257 239 249 257 249 263 269 257 256 264 266 267 282 357 23 28 32 41 49 55 68 58 36 8 348 350 353 351 352 355 355 355 355 352 351 352 351 352 353 354 354 355 355 355 355 355 356 356 355 354 354 353 352 351 350 350 350 349 348 347 344 338 328 315 302 288 275 264 256 250 245
175 243 232 245 256 259 268 276 282 287 279 274 278 276 271 265 248 243 246 250 266 278 264 257 264 271 273 266 45 42 35 27 21 10 354 350 0 356 341 341 350 354 354 355 353 354 354 350 347 347 347 347 348 348 349 350 351 352 352 351 351 352 352 352 351 351 350 348 348 347 346 346 346 346 346 346 345 341 331 319 306 292 280 268 256 249
177 252 250 255 263 264 268 274 274 272 270 266 267 268 269 267 252 246 251 257 260 259 264 276 278 278 278 236 144 106 80 42 355 319 294 293 313 333 336 341 350 352 348 347 347 347 345 341 342 342 341 342 344 345 346 346 346 347 347 347 348 348 348 348 347 347 346 344 343 342 341 342 343 344 345 346 345 344 340 333 322 309 295 281 269 260
185 245 244 252 269 269 264 270 270 268 271 269 263 261 265 264 260 259 263 264 257 256 266 275 273 274 275 150 160 147 137 209 280 285 279 271 277 307 324 327 334 336 332 333 333 330 329 330 332 332 334 337 340 341 342 342 342 342 342 342 343 343 344 344 343 342 341 340 338 337 338 339 340 341 342 343 343 341 339 336 331 321 307 293 281 270
249 264 286 290 276 269 262 266 267 267 274 275 275 273 266 264 265 267 269 269 266 265 264 261 265 269 212 135 191 173 162 218 250 262 277 264 243 258 289 300 318 328 326 325 322 320 320 320 323 329 331 332 333 335 336 336 337 337 337 338 338 338 339 340 340 338 336 334 334 333 334 336 338 339 339 339 339 338 336 334 332 328 318 305 291 279
280 283 342 359 272 264 264 268 273 291 296 281 274 268 263 262 263 262 262 263 264 268 268 265 266 257 160 152 241 192 184 233 249 253 280 278 238 244 271 289 314 322 316 314 316 316 316 317 322 326 325 326 327 328 330 330 330 332 334 334 333 333 334 335 335 334 331 331 331 331 332 334 335 336 336 336 336 335 335 333 332 330 326 317 304 290
236 263 316 281 264 265 264 269 300 354 293 273 259 256 256 257 260 260 259 258 257 262 269 267 261 216 174 167 205 215 212 241 255 256 279 283 257 247 257 275 299 305 301 303 304 305 306 309 315 317 318 320 320 320 323 325 325 325 328 328 327 329 330 331 331 330 329 329 329 329 330 331 332 332 331 331 331 332 333 333 332 331 328 322 313 300
225 241 256 252 263 273 275 318 16 276 263 265 247 237 249 253 256 259 258 256 250 163 234 235 149 150 176 180 197 222 222 231 254 266 271 269 250 245 252 263 283 292 291 290 291 293 295 298 304 309 311 313 313 314 317 319 319 319 321 322 323 325 326 326 326 326 327 327 327 327 328 329 329 328 326 327 328 329 329 330 330 329 327 322 315 303
229 235 244 243 247 271 292 330 287 260 257 294 357 326 286 261 241 250 257 232 163 133 130 128 139 167 187 197 209 219 227 236 252 271 274 264 233 232 244 254 270 280 281 282 284 284 285 290 297 303 306 307 308 309 311 313 315 316 317 319 321 322 323 322 321 321 323 323 323 324 326 327 326 324 323 323 324 325 326 326 325 325 324 320 313 304
226 237 248 241 238 268 269 241 252 268 304 308 308 322 324 41 115 176 256 214 181 163 150 153 175 191 191 205 220 218 224 246 264 268 268 261 236 224 229 244 263 272 274 280 281 279 282 285 290 297 301 303 304 305 306 309 312 314 315 317 319 320 320 319 318 318 320 320 321 322 324 325 325 323 321 321 322 322 322 322 321 321 320 316 311 303
217 228 238 235 231 244 251 246 264 317 312 272 270 254 189 170 163 182 244 224 193 174 152 158 196 219 210 220 236 222 193 320 302 269 257 246 228 217 218 233 250 259 269 278 282 285 287 288 293 298 300 301 301 301 303 306 309 312 313 314 316 317 317 316 314 316 318 319 319 320 321 323 323 321 319 319 319 319 318 317 316 316 315 312 307 302
216 218 211 226 236 228 246 264 276 293 282 257 251 251 219 173 168 162 75 249 193 180 166 162 203 232 226 231 242 211 109 34 285 268 255 236 224 219 223 238 247 255 267 276 283 290 294 297 300 302 301 301 299 299 303 306 307 309 309 309 311 313 312 310 311 314 317 317 317 318 319 320 320 318 315 314 315 315 314 313 312 311 311 306 301 298
206 215 206 223 253 239 236 252 249 260 271 210 195 234 242 177 141 118 4 314 184 187 197 192 220 236 224 229 230 154 123 237 260 266 254 229 225 227 233 245 252 260 272 281 287 291 297 302 305 304 302 299 297 299 305 307 307 307 304 304 307 307 304 303 307 311 313 313 313 314 315 316 317 314 310 309 310 310 310 309 308 308 307 303 298 295
72 237 217 215 236 239 239 251 248 251 258 182 184 209 226 153 97 73 304 286 181 197 205 192 218 236 221 222 214 154 178 223 242 261 252 222 219 232 240 251 258 265 276 285 289 292 297 302 303 302 301 298 296 300 305 307 308 306 303 303 304 299 296 299 304 307 309 309 310 311 312 313 313 310 306 305 306 307 306 305 305 305 304 302 297 293
344 278 238 221 232 234 236 248 256 250 223 193 194 199 183 117 80 206 254 226 180 210 219 193 213 230 216 209 200 183 215 226 232 255 267 255 244 247 249 256 264 272 277 282 289 293 298 300 300 298 296 295 296 299 302 307 308 304 302 304 299 293 295 301 304 305 306 306 307 308 308 309 309 306 303 301 303 304 303 302 302 302 301 299 296 292
212 293 292 243 231 239 242 252 270 281 236 179 181 192 137 113 179 228 225 181 178 207 219 207 218 226 214 209 208 212 233 241 243 257 271 271 266 265 262 260 268 280 285 287 292 294 297 298 298 296 294 295 297 299 302 307 305 301 301 299 292 292 300 304 303 305 305 304 304 304 304 305 305 303 301 300 302 303 301 300 299 298 296 294 291 288
181 154 260 235 195 196 253 240 251 276 228 163 151 100 115 178 203 206 202 212 209 209 210 214 224 224 212 218 226 229 240 252 255 259 263 263 265 269 270 268 267 276 286 292 294 295 297 297 295 293 293 296 297 298 300 303 300 299 298 292 290 296 303 303 303 304 303 301 301 301 301 301 301 299 298 298 300 301 299 297 296 295 293 290 286 282
181 166 226 242 196 159 207 225 221 233 225 181 162 177 209 206 202 192 232 267 261 237 212 211 229 228 213 219 238 243 247 254 258 259 261 264 266 266 269 274 273 273 282 289 291 296 301 298 293 292 293 294 295 296 297 298 296 295 291 289 294 301 303 302 303 302 299 298 298 298 298 298 297 295 294 295 297 297 294 293 293 291 289 286 281 275
214 198 220 245 222 174 205 233 229 222 235 212 190 210 235 249 257 244 239 263 271 251 211 201 237 243 224 220 240 254 257 257 259 262 263 265 269 268 271 281 284 285 288 288 290 296 302 299 294 293 292 293 294 294 295 296 294 289 287 290 297 302 302 303 303 299 296 295 294 294 295 295 294 292 291 292 293 292 289 288 289 287 285 282 277 269
237 217 219 272 270 261 256 254 250 259 265 255 239 237 241 253 263 243 216 237 252 245 223 210 234 251 242 222 228 244 253 257 261 267 270 274 278 280 283 288 292 294 293 291 294 300 304 302 298 294 293 293 294 294 296 297 294 288 288 293 299 301 302 302 301 297 295 293 292 292 292 292 292 291 290 289 288 285 283 282 282 281 279 278 272 265
245 200 192 250 262 269 269 263 238 236 255 257 253 256 253 250 252 229 207 232 250 250 244 228 229 247 250 232 227 242 254 261 268 278 290 292 285 286 291 292 295 296 294 294 300 305 307 304 299 296 296 295 295 297 299 299 296 293 294 298 302 303 303 302 298 295 293 291 290 290 289 288 288 288 289 288 285 283 280 278 276 274 272 271 267 263
232 162 190 241 248 247 259 265 254 241 257 261 257 263 269 267 266 254 229 228 238 249 258 245 225 235 246 241 236 248 264 274 281 291 298 294 286 290 295 296 297 298 297 300 305 308 307 302 298 298 296 294 296 300 302 301 299 300 302 303 305 306 304 299 295 292 290 289 288 288 287 286 285 285 286 286 284 281 278 275 273 270 267 264 262 260
202 165 179 229 251 253 258 264 266 269 274 268 256 255 258 260 267 269 264 244 228 253 279 297 258 218 209 288 307 280 280 286 289 283 283 285 288 292 298 301 302 300 300 305 309 308 305 302 300 300 297 296 299 302 303 302 301 303 306 306 306 306 301 297 294 291 289 288 288 287 286 285 283 284 284 284 282 280 277 274 272 270 269 266 262 258
209 232 220 210 257 261 257 254 253 262 269 266 262 258 251 245 253 264 278 324 71 328 337 344 328 3 86 85 27 277 275 282 292 293 282 281 286 293 299 304 304 303 305 308 309 308 305 304 304 303 301 301 303 304 303 303 303 305 306 306 305 302 297 294 293 291 288 288 287 287 287 286 285 285 285 284 283 284 282 279 274 269 268 268 267 263
218 236 230 219 245 258 262 258 248 236 252 265 269 267 260 179 197 220 247 158 123 114 65 34 321 316 333 246 233 236 257 273 290 303 293 282 285 294 300 303 303 304 306 308 309 310 310 309 309 308 306 305 306 306 304 303 302 304 305 303 302 298 293 291 290 288 287 287 286 286 287 287 286 287 286 283 282 283 285 285 281 274 268 265 266 266
Height
816 819 822 815 809 810 812 812 810 809 814 817 818 817 817 819 814 807 800 793 794 796 793 788 782 780 779 775 771 765 761 759 756 759 758 750 745 740 736 733 730 729 723 721 725 726 725 726 725 724 724 723 723 723 723 722 722 722 724 725 726 729 733 736 738 740 742 744 746 748 748 746 748 751 754 757 759 761 764 767 770 773 776 779 782 785
818 821 818 806 802 807 810 812 813 815 816 816 818 819 821 822 811 802 799 792 794 800 795 787 784 783 779 772 765 760 760 757 752 756 755 746 739 732 731 733 731 729 723 722 724 723 724 724 723 723 722 721 720 719 719 718 717 718 719 720 721 725 728 729 731 734 736 737 739 740 740 741 744 747 749 750 752 756 759 763 766 769 772 775 778 781
823 820 811 803 807 811 811 813 814 815 816 817 821 823 822 817 807 802 800 796 800 801 792 788 789 786 775 764 757 756 758 753 747 749 746 739 734 729 732 735 731 728 726 723 721 720 722 723 722 722 720 719 717 716 716 715 715 716 716 716 718 720 722 724 726 729 731 733 737 740 741 743 746 747 747 749 751 754 756 759 762 765 768 771 773 776
821 813 805 805 810 811 811 813 814 815 818 818 820 823 817 810 808 807 800 799 803 799 794 793 787 777 767 758 753 752 753 750 745 740 735 735 737 735 736 735 732 732 729 725 720 717 719 721 721 721 719 717 716 714 714 714 714 714 714 713 714 715 716 719 722 724 728 732 737 740 742 744 746 747 749 752 753 753 754 755 758 760 763 766 769 772
809 804 806 808 810 811 812 813 813 814 817 818 819 818 810 805 808 806 801 803 802 796 798 794 775 760 756 755 750 747 750 748 739 731 731 736 739 738 735 733 733 733 732 728 721 718 718 720 720 719 718 716 715 713 712 711 712 712 712 712 711 712 713 715 718 721 725 729 733 737 741 743 745 746 747 748 747 747 750 751 753 755 759 763 765 768
806 803 806 807 809 814 813 809 809 812 818 817 810 806 802 801 804 803 805 811 805 797 798 796 782 763 751 752 749 745 746 738 727 730 735 735 735 735 732 731 731 731 731 730 725 723 721 720 719 717 716 716 714 712 711 710 710 710 710 711 711 711 712 713 716 719 722 724 727 730 733 736 739 741 740 738 738 741 744 746 749 753 756 759 762 765
804 804 806 805 807 811 812 809 805 809 819 818 806 800 801 803 806 807 809 811 806 800 800 801 799 780 755 750 749 744 742 734 728 735 736 733 733 733 733 732 732 731 729 729 727 725 723 721 720 718 717 717 714 712 711 709 709 708 709 709 711 711 712 713 714 717 719 721 722 723 725 728 731 734 734 736 740 743 745 747 750 752 754 756 759 762
799 804 807 806 807 810 811 807 802 807 813 811 806 803 802 804 807 809 809 810 808 806 805 803 804 794 769 755 750 743 742 740 737 735 731 731 731 731 735 735 734 733 731 731 728 725 724 724 723 723 722 720 716 714 712 710 708 707 708 708 710 711 712 713 714 716 718 719 721 722 724 726 727 729 732 737 741 743 746 748 749 750 752 754 756 759
799 801 802 803 808 810 805 798 798 803 803 802 808 809 805 805 808 809 808 810 813 811 805 802 804 799 773 753 753 753 749 745 741 734 728 729 728 728 734 734 733 734 733 733 733 730 728 728 728 728 724 721 719 718 716 714 711 709 709 709 710 711 712 713 715 716 718 720 722 724 725 726 727 729 733 735 738 741 744 746 747 749 750 752 754 756
797 798 799 799 801 799 793 794 798 796 794 801 810 810 808 811 812 813 810 807 811 808 800 797 800 795 768 744 749 757 751 743 739 735 732 731 730 731 734 734 733 734 733 734 736 735 732 732 732 726 721 720 721 721 720 719 718 715 713 713 713 714 715 716 718 718 720 721 723 724 725 727 729 730 732 734 736 738 740 743 746 747 749 750 751 753
798 802 803 797 792 789 789 800 806 799 798 805 807 803 806 812 813 816 815 809 811 803 789 787 790 793 777 749 745 750 745 741 740 739 736 732 731 733 735 736 736 737 738 737 736 735 734 734 731 724 720 723 724 723 723 722 722 720 719 719 719 720 721 722 723 723 724 724 725 725 725 727 728 729 730 730 731 733 735 737 740 744 746 749 750 751
800 802 799 791 789 790 790 798 808 809 806 803 802 801 804 808 810 815 816 814 812 797 782 785 788 793 782 753 743 747 743 742 742 741 739 736 734 734 735 739 742 745 744 739 738 739 738 736 733 728 727 728 728 727 727 725 725 723 722 722 722 723 725 726 727 727 726 726 726 726 726 727 727 727 727 727 727 727 729 731 734 738 741 745 748 750
794 795 794 789 789 790 788 793 803 808 807 803 803 807 810 812 811 812 813 816 811 793 788 797 795 790 773 745 741 744 737 734 736 739 740 737 735 735 738 745 749 751 749 748 750 749 747 746 744 739 736 736 735 733 731 729 728 727 725 724 723 724 726 727 729 730 730 730 729 729 728 728 728 728 727 727 727 727 728 729 730 732 734 737 741 744
786 789 794 791 785 785 786 789 790 792 800 804 801 802 806 809 811 810 810 816 809 790 794 802 794 787 769 743 738 737 730 731 733 735 737 737 739 743 747 753 756 756 757 757 758 756 755 755 751 748 746 745 743 740 735 732 731 731 729 727 725 726 726 727 729 730 732 733 733 734 733 732 731 730 728 728 728 729 730 731 731 731 731 732 733 735
789 786 783 782 778 778 781 778 773 778 793 801 794 793 795 791 796 799 795 796 790 781 793 803 792 780 761 740 735 732 730 734 735 736 742 747 750 753 756 760 762 763 764 763 762 762 761 759 756 753 751 750 748 744 739 735 735 734 731 727 726 727 728 728 729 730 731 732 734 735 736 736 736 734 733 731 730 730 730 731 733 733 733 732 732 732
793 782 771 776 778 777 777 773 772 777 787 798 797 794 790 780 779 784 781 778 780 783 790 793 784 766 748 735 730 728 729 734 737 743 751 757 758 758 763 767 769 768 767 766 766 766 764 761 758 756 753 751 750 745 740 737 737 736 733 729 728 728 729 729 730 730 731 732 733 735 736 737 737 736 735 734 733 732 731 731 732 733 733 734 734 734
788 779 771 779 780 776 775 774 775 775 778 793 798 788 782 778 774 779 782 777 783 790 781 772 771 761 750 741 727 724 729 733 742 755 762 766 766 767 773 776 776 774 772 772 771 770 767 764 760 758 755 753 750 747 743 741 741 739 736 734 732 731 730 730 730 730 731 731 732 734 735 736 736 735 734 733 732 732 732 732 732 732 733 734 735 735
781 778 770 771 771 773 781 779 775 777 778 785 788 779 777 782 779 783 792 790 790 791 775 762 763 760 758 750 730 724 733 741 756 771 774 774 775 778 782 783 782 781 778 776 774 771 770 767 764 761 759 757 755 752 749 747 746 744 740 738 736 734 732 731 731 730 731 731 731 732 734 735 735 734 733 732 730 730 730 730 731 732 733 733 734 735
783 782 770 764 766 773 782 780 774 778 780 778 777 776 777 783 783 782 791 795 791 788 777 767 762 760 761 752 734 734 747 759 772 780 781 783 785 787 788 787 787 785 782 780 777 775 773 771 767 764 761 759 756 754 752 751 749 745 743 741 740 738 736 734 732 731 731 731 731 731 732 733 734 734 733 731 729 728 727 727 728 729 730 732 733 734
786 789 780 769 770 775 777 776 773 775 780 781 780 780 779 781 783 781 784 789 786 782 779 772 766 761 753 740 737 754 771 775 779 784 788 791 791 792 791 790 788 785 783 781 779 776 773 769 766 763 762 761 759 758 756 754 751 748 746 743 741 739 737 734 733 731 731 731 731 731 731 731 732 732 732 730 728 726 724 723 724 724 726 727 729 731
788 792 787 774 774 777 773 770 768 766 772 779 780 781 781 779 780 782 782 780 778 779 777 773 769 756 740 737 752 773 783 782 782 787 791 792 791 791 791 789 787 784 782 780 777 775 772 769 767 765 765 764 762 761 759 757 756 753 750 748 744 741 737 734 733 732 731 731 731 730 730 730 729 729 728 727 725 724 722 722 722 722 723 724 724 726
787 788 786 779 778 777 768 762 762 762 765 770 773 774 775 775 779 785 783 772 769 773 769 767 764 747 739 753 771 781 785 785 786 787 789 792 792 791 790 789 787 785 784 782 780 778 776 773 771 769 767 765 762 760 759 758 757 755 753 751 748 745 741 737 735 733 732 732 731 730 730 729 728 727 726 724 722 721 720 720 720 721 721 721 722 723
784 786 786 780 775 772 765 762 764 765 765 767 770 769 769 772 776 782 781 767 763 764 758 759 757 746 752 770 777 781 785 786 787 788 790 793 792 791 790 789 788 786 785 783 781 779 777 775 772 769 767 766 764 763 762 761 759 757 755 752 749 746 743 740 737 734 733 732 731 730 730 729 727 726 724 722 719 717 717 717 717 718 719 719 720 721
785 788 787 779 771 767 764 762 764 768 769 770 770 769 770 771 769 770 771 768 770 766 757 759 755 747 760 777 777 779 784 785 788 790 791 792 791 791 791 789 788 787 784 783 781 778 777 773 770 767 765 764 763 763 762 761 760 758 755 752 749 746 743 740 737 734 732 731 730 729 729 728 726 724 722 720 717 715 714 713 713 714 715 716 718 719
787 785 784 784 781 776 772 768 767 769 771 772 771 768 768 768 768 770 770 773 778 768 757 762 757 746 757 772 774 779 783 784 788 790 789 792 792 792 792 790 789 787 785 784 782 779 776 773 770 769 767 765 763 761 759 758 757 756 754 752 749 747 745 741 738 735 733 732 730 728 727 726 725 723 721 718 715 713 712 711 710 710 711 712 714 715
790 785 782 786 787 783 779 774 770 771 775 778 775 771 769 769 770 773 775 778 776 762 756 763 758 746 747 754 761 774 780 781 785 788 789 790 791 791 791 790 789 787 786 784 782 780 777 774 773 771 769 767 765 763 760 758 756 755 753 752 750 748 746 743 741 739 737 735 733 730 728 726 724 722 720 717 714 712 710 709 708 707 707 708 709 710
793 791 784 784 784 780 776 773 771 775 781 781 777 775 774 774 773 775 779 777 768 762 761 758 752 749 745 746 759 775 781 782 783 785 787 787 788 789 788 788 787 786 784 782 780 779 776 775 773 770 769 767 765 764 762 760 758 755 753 752 750 749 746 744 743 741 739 738 735 733 731 728 726 723 720 717 714 711 709 708 706 705 704 704 704 705
793 792 784 781 782 778 776 774 774 778 781 779 778 777 775 775 775 777 776 768 764 766 761 748 747 752 747 750 768 781 784 785 784 784 784 784 786 787 786 785 785 783 782 781 779 778 776 774 773 771 769 767 764 763 761 759 758 756 755 753 751 749 747 745 744 742 741 739 736 735 732 730 727 724 721 717 714 711 708 706 704 703 701 701 700 701
793 792 783 780 781 778 777 777 777 780 780 778 777 776 774 773 773 772 770 765 766 769 760 751 752 752 750 761 778 784 784 786 784 783 783 783 783 785 784 783 783 782 781 780 778 777 776 774 773 771 769 767 765 763 761 759 757 755 754 752 751 750 748 746 744 743 741 739 737 735 733 730 728 725 721 717 713 710 708 705 703 701 699 698 697 697
793 791 783 782 785 781 780 779 779 781 781 778 776 775 773 771 768 768 767 765 767 767 761 759 758 755 761 777 784 784 784 784 783 782 782 781 782 783 784 783 782 782 780 779 778 777 775 774 773 771 769 767 766 764 762 760 757 755 754 752 750 749 747 746 744 742 741 739 737 735 732 730 727 724 721 718 714 711 708 705 702 699 697 695 694 693
793 790 782 784 790 785 780 780 779 781 782 781 780 777 774 773 770 770 768 765 766 764 760 760 759 759 773 785 784 782 784 783 782 782 780 780 782 783 783 783 781 780 778 777 776 774 773 772 771 769 768 766 765 763 762 760 758 757 755 753 751 749 747 745 743 741 740 738 736 734 731 728 725 723 720 717 715 712 709 706 702 698 695 693 691 691
794 793 787 789 793 785 778 778 780 782 785 787 784 779 774 773 770 767 764 761 760 757 755 757 758 765 778 786 783 782 783 782 781 781 779 779 781 782 782 781 779 777 776 775 774 772 771 770 769 768 767 765 764 762 761 759 758 756 755 753 752 750 748 745 743 741 738 736 734 732 729 727 724 721 719 716 714 711 708 705 701 696 693 690 688 688
795 798 797 796 793 784 777 780 785 790 792 785 775 768 764 763 763 760 758 756 756 758 759 758 762 773 781 783 782 781 781 781 780 779 778 779 780 780 780 778 777 775 775 774 772 771 769 768 767 766 765 764 763 761 759 758 757 756 755 754 752 750 747 745 742 740 737 735 733 731 728 726 723 720 718 715 713 710 707 703 698 695 692 689 687 686
796 798 800 797 793 786 780 785 795 795 786 771 762 761 761 759 758 758 758 758 763 770 771 768 773 781 783 781 780 779 778 778 778 777 777 777 778 778 777 776 775 773 773 772 771 769 768 766 765 765 764 763 762 760 759 757 756 755 754 753 751 749 747 744 741 739 736 734 733 731 729 726 723 719 716 713 711 708 705 701 697 694 691 688 686 684
799 800 800 796 795 792 787 794 799 784 769 767 771 773 772 767 763 764 767 770 775 777 778 777 779 780 780 779 778 778 777 777 777 777 776 775 776 776 775 774 773 772 771 770 769 767 766 764 764 763 762 761 760 758 757 755 754 753 752 751 749 746 744 742 739 738 736 734 732 730 727 724 721 718 714 711 708 705 702 700 696 693 690 687 685 683
796 797 795 793 794 793 792 795 789 770 765 774 777 777 777 773 770 770 771 774 778 777 775 777 777 776 777 778 777 776 777 777 778 777 775 773 773 772 772 770 769 769 768 767 766 765 764 763 762 761 760 759 757 756 755 753 753 751 749 747 746 743 741 739 737 735 734 732 730 728 725 721 717 714 710 707 704 701 699 697 695 692 689 686 683 681
791 792 793 794 790 785 788 789 777 770 771 767 763 768 772 768 766 768 768 770 774 776 774 775 775 774 775 775 775 776 777 779 780 777 771 769 769 768 767 766 765 766 765 764 763 762 761 760 760 759 758 756 755 753 752 751 750 749 746 744 742 740 738 735 733 732 730 729 727 724 721 718 714 710 706 704 701 698 696 695 693 690 688 685 681 679
790 789 791 796 787 779 787 792 785 783 776 761 759 767 768 764 765 768 771 771 772 774 774 773 772 772 773 773 774 776 778 782 781 773 766 766 766 764 764 763 763 763 762 760 760 759 758 758 757 757 755 754 752 750 749 748 747 745 743 741 739 737 734 732 730 729 727 725 723 720 718 715 712 708 704 701 699 697 694 692 690 688 686 683 679 675
793 791 790 796 791 784 789 791 784 779 770 761 763 767 767 768 768 769 774 774 771 773 775 773 771 771 771 771 772 775 780 783 779 770 764 764 764 762 762 761 760 760 759 758 757 757 756 755 755 753 753 751 749 747 747 746 744 742 740 738 736 734 731 729 727 726 724 721 719 717 715 712 710 706 703 699 697 695 692 689 687 684 683 680 676 672
795 793 792 794 792 788 789 785 776 768 764 764 767 767 768 771 769 772 776 772 769 772 773 771 770 768 768 770 773 776 779 778 772 764 760 761 761 760 760 758 757 757 756 755 755 754 754 754 752 751 749 747 746 744 744 743 740 738 736 734 733 730 727 726 724 723 721 718 716 714 711 709 707 704 701 697 694 692 690 687 684 681 678 676 673 669
795 795 795 793 788 784 783 779 772 765 762 764 767 767 769 771 772 775 772 766 768 772 770 769 769 766 767 770 772 774 771 767 763 759 757 759 760 758 757 756 755 754 754 753 753 752 752 751 750 749 746 744 743 742 741 740 738 735 733 732 729 726 724 724 722 720 718 715 712 710 707 706 704 701 698 695 691 688 685 682 680 678 675 672 669 665
792 794 795 793 789 786 782 778 777 771 763 762 766 770 772 771 770 769 764 761 766 766 764 766 766 764 766 768 768 767 763 760 759 758 757 757 756 755 754 754 753 752 751 751 750 750 750 749 748 746 743 741 740 739 738 738 736 732 731 729 725 722 722 721 719 716 714 711 708 706 704 701 700 697 694 691 688 685 680 677 675 674 671 669 665 661
785 789 788 786 786 788 788 787 786 775 762 760 765 768 770 767 761 760 761 762 763 761 762 765 763 761 763 763 763 763 760 758 758 757 755 755 753 752 751 751 751 751 749 749 748 747 748 747 745 743 740 738 738 737 736 736 733 730 728 724 720 719 720 718 716 714 711 707 704 702 700 697 695 693 690 687 685 682 677 672 670 669 667 665 661 657
783 784 784 780 778 780 782 779 774 763 755 758 761 758 758 758 755 756 759 759 757 758 759 760 759 758 759 759 759 759 757 756 756 754 753 752 750 750 749 748 749 750 749 748 746 745 746 746 743 741 738 736 735 734 733 733 731 728 724 719 717 717 716 714 712 710 707 703 701 697 695 693 691 689 686 684 682 679 674 669 666 664 661 659 657 654
776 772 774 773 770 770 768 762 759 757 757 760 760 754 752 753 753 755 757 756 755 755 755 755 755 754 755 756 756 755 754 753 751 750 750 749 748 747 747 747 747 747 747 746 744 744 744 743 741 739 735 732 731 730 729 730 729 726 720 716 716 715 712 710 709 705 702 699 696 693 691 688 686 683 681 679 678 675 670 665 662 659 656 654 653 650
769 769 772 770 766 766 761 754 756 759 757 757 757 755 753 753 751 753 755 754 753 752 752 753 753 751 752 754 754 753 752 750 748 748 748 748 747 746 746 746 745 745 745 744 743 743 742 741 739 737 733 729 726 725 726 726 726 723 718 715 715 713 710 708 705 700 697 694 691 689 687 684 680 677 675 673 672 670 666 662 658 654 651 650 648 645
767 770 772 768 767 768 761 752 753 756 752 750 752 751 750 751 750 750 752 751 750 749 750 751 751 750 750 751 751 751 749 747 748 748 747 748 747 745 744 745 744 743 743 742 742 742 740 739 737 734 731 727 722 721 722 721 720 719 716 715 713 711 707 705 701 697 693 689 686 684 682 679 675 671 668 667 665 663 660 656 654 650 646 644 642 640
768 769 770 766 765 765 758 749 749 752 749 748 750 748 747 747 746 746 748 748 748 748 748 748 749 749 749 749 750 750 748 748 749 750 749 748 746 744 744 744 743 742 740 739 740 740 738 737 734 732 729 725 720 718 718 715 714 715 714 713 711 708 704 700 696 692 688 684 681 679 676 674 671 667 663 660 658 657 653 650 648 645 640 637 636 634
765 768 767 765 763 760 753 748 749 752 750 746 746 745 744 744 744 743 745 746 747 747 747 748 749 749 749 749 750 750 749 748 749 751 750 747 745 744 744 743 742 740 738 737 738 737 735 734 732 729 726 722 718 717 714 711 710 711 711 710 708 706 701 694 690 687 683 679 677 674 671 669 666 663 660 656 652 649 646 643 642 639 633 629 629 628
762 762 762 765 765 757 750 746 747 750 748 742 739 740 741 742 743 742 742 744 746 746 747 747 748 749 750 750 750 751 750 748 748 750 749 746 744 744 743 742 740 738 736 736 735 734 732 731 729 727 724 720 717 715 710 707 706 706 707 707 704 702 697 691 685 681 677 675 673 669 667 664 661 659 656 652 648 644 639 635 634 633 627 622 621 621
756 754 754 759 757 747 740 738 742 745 744 738 735 738 740 743 743 742 742 744 746 747 748 748 747 747 748 749 750 750 750 748 748 749 747 745 743 742 742 742 740 738 736 734 733 731 729 727 725 724 720 717 714 711 707 704 702 702 702 701 699 696 692 687 682 675 670 669 668 665 662 660 656 654 652 648 644 641 635 628 624 622 620 617 614 613